This demonstration page uses our WeatherBlox Daily Observations layout. Learn more.

Left ArrowRight Arrow

36.19886, -115.1175

Hourly Observations for February 17, 2022

Temp ( °F °C ) Dew Point ( °F °C ) Humidity (%) Winds ( mph kmh ) Pressure ( in mb ) Visibility ( mi km ) Precip ( " mm )
12:53 am 00:53 Clear 50 10 15 -9.4 25 25 NNW 14 22 30.25 1025 10 16 0.00 0.00
1:53 am 01:53 Clear 50 10 15 -9.4 25 25 NNW 8 13 30.27 1025 10 16 0.00 0.00
2:53 am 02:53 Clear 48 8.9 15 -9.4 27 27 NW 12 19 30.29 1026 10 16 0.00 0.00
3:53 am 03:53 Clear 49 9.4 15 -9.4 26 26 NW 10 17 30.30 1026 10 16 0.00 0.00
4:53 am 04:53 Clear 46 7.8 15 -9.4 29 29 NNW 12 19 30.32 1027 10 16 0.00 0.00
5:53 am 05:53 Clear 46 7.8 15 -9.4 29 29 NNW 14 22 30.35 1028 10 16 0.00 0.00
6:53 am 06:53 Sunny 46 7.8 15 -9.4 29 29 NNW 17 28 30.37 1029 10 16 0.00 0.00
7:53 am 07:53 Sunny 50 10 15 -9.4 25 25 NNW 13 20 30.40 1030 10 16 0.00 0.00
8:53 am 08:53 Sunny 52 11.1 15 -9.4 23 23 NNW 18 30 30.41 1030 10 16 0.00 0.00
9:53 am 09:53 Mostly Sunny 54 12.2 14 -10 20 20 NNW 18 30 30.42 1030 N/A 0.00 0.00
10:53 am 10:53 Sunny 57 13.9 13 -10.6 17 17 NNW 17 28 30.41 1030 10 16 0.00 0.00
11:53 am 11:53 Sunny 58 14.4 12 -11.1 16 16 NNW 13 20 30.39 1029 10 16 0.00 0.00
12:53 pm 12:53 Sunny 60 15.6 11 -11.7 14 14 NW 14 22 30.35 1028 10 16 0.00 0.00
1:53 pm 13:53 Sunny 60 15.6 11 -11.7 14 14 NNW 6 9 30.32 1027 10 16 0.00 0.00
2:53 pm 14:53 Sunny 62 16.7 9 -12.8 12 12 Calm 30.30 1026 10 16 0.00 0.00
3:53 pm 15:53 Sunny 62 16.7 9 -12.8 12 12 NNW 6 9 30.29 1026 10 16 0.00 0.00
4:53 pm 16:53 Sunny 60 15.6 10 -12.2 14 14 E 5 7 30.29 1026 10 16 0.00 0.00
5:53 pm 17:53 Clear 57 13.9 9 -12.8 15 15 ESE 5 7 30.30 1026 10 16 0.00 0.00
6:53 pm 18:53 Clear 55 12.8 10 -12.2 16 16 Calm 30.32 1027 10 16 0.00 0.00
7:53 pm 19:53 Clear 51 10.6 11 -11.7 20 20 WNW 3 6 30.35 1028 10 16 0.00 0.00
8:53 pm 20:53 Clear 49 9.4 12 -11.1 22 22 NW 5 7 30.35 1028 10 16 0.00 0.00
9:53 pm 21:53 Clear 48 8.9 11 -11.7 22 22 W 7 11 30.35 1028 10 16 0.00 0.00
10:53 pm 22:53 Clear 46 7.8 12 -11.1 25 25 NW 7 11 30.35 1028 10 16 0.00 0.00
11:53 pm 23:53 Clear 48 8.9 8 -13.3 19 19 NW 12 19 30.35 1028 10 16 0.00 0.00

Powered by AerisWeather